Oscoda, MI

8:42 PM EST on February 19, 2017 (GMT -0500)
Oscoda-Wurtsmith

Weather History for KOSC - February, 2014

Change the Weather History Date:

Monday, February 24, 2014

  Actual Average Record
Temperature  
Mean Temperature 10 °F -  
Max Temperature 20 °F 30 °F 48 °F (2002)
Min Temperature 1 °F 16 °F -7 °F (2009)
Degree Days  
Heating Degree Days 54    
Moisture  
Dew Point 3 °F    
Average Humidity 65    
Maximum Humidity 88    
Minimum Humidity 47    
Precipitation  
Precipitation 0.00 in - - ()
Sea Level Pressure  
Sea Level Pressure 30.03 in    
Wind  
Wind Speed 9 mph (WNW)    
Max Wind Speed 21 mph    
Max Gust Speed 26 mph    
Visibility 9 miles    
Events Snow    
Averages and records for this station are not official NWS values.
T = Trace of Precipitation, MM = Missing Value Source: NWS Daily Summary

Daily Weather History Graph

Daily Weather History Graph

Search for Another Location

Airport or City:

Trip Planner

Search our weather history database for the weather conditions in past years. The results will help you decide how hot, cold, wet, or windy it might be!

Date:

Astronomy

Feb. 24, 2014 Rise Set
Actual Time 7:19 AM EST 6:14 PM EST
Civil Twilight 6:49 AM EST 6:44 PM EST
Nautical Twilight 6:16 AM EST 7:17 PM EST
Astronomical Twilight 5:42 AM EST 7:51 PM EST
Moon 3:24 AM EST (2/24) 1:07 PM EST (2/24)
Length of Visible Light 11h 54m
Length of Day
10h 55m
Waning Crescent, 28% of the Moon is Illuminated
Feb 24
Waning Crescent
Mar 1
New
Mar 8
First Quarter
Mar 16
Full
Mar 23
Last Quarter

Hourly Weather History & Observations

Time (EST) Temp. Windchill Dew Point Humidity Pressure Visibility Wind Dir Wind Speed Gust Speed Precip Events Conditions
12:14 AM 18.3 °F 8.2 °F 12.6 °F 78% 29.96 in 2.0 mi NW 8.1 mph - N/A Snow Light Snow
12:34 AM 17.6 °F 2.2 °F 14.2 °F 86% 29.97 in 1.5 mi North 17.3 mph - N/A Snow Light Snow
12:54 AM 16.0 °F 3.6 °F 10.2 °F 78% 29.97 in 7.0 mi NW 10.4 mph - N/A Snow Light Snow
1:14 AM 15.8 °F 5.1 °F 9.5 °F 76% 29.98 in 7.0 mi NW 8.1 mph - N/A   Overcast
1:34 AM 15.4 °F 6.8 °F 9.1 °F 76% 29.97 in 10.0 mi WNW 5.8 mph - N/A   Overcast
1:54 AM 14.9 °F 7.5 °F 8.6 °F 76% 29.97 in 10.0 mi West 4.6 mph - N/A   Overcast
2:14 AM 14.7 °F 7.3 °F 7.7 °F 74% 29.97 in 10.0 mi West 4.6 mph - N/A   Overcast
2:34 AM 14.7 °F 5.9 °F 6.6 °F 70% 29.97 in 10.0 mi WNW 5.8 mph - N/A   Overcast
2:54 AM 13.5 °F 3.3 °F 4.8 °F 68% 29.97 in 10.0 mi West 6.9 mph - N/A   Mostly Cloudy
3:14 AM 12.6 °F 1.1 °F 4.1 °F 69% 29.97 in 10.0 mi WNW 8.1 mph - N/A   Clear
3:34 AM 10.6 °F 2.5 °F 3.0 °F 72% 29.97 in 10.0 mi West 4.6 mph - N/A   Scattered Clouds
3:54 AM 10.4 °F -0.4 °F 3.2 °F 73% 29.97 in 10.0 mi West 6.9 mph - N/A   Mostly Cloudy
4:14 AM 11.7 °F 2.3 °F 4.1 °F 72% 29.97 in 10.0 mi West 5.8 mph - N/A   Overcast
4:34 AM 11.1 °F 1.7 °F 3.6 °F 72% 29.98 in 10.0 mi West 5.8 mph - N/A   Overcast
4:54 AM 10.2 °F 0.6 °F 3.4 °F 74% 29.98 in 10.0 mi West 5.8 mph - N/A   Overcast
5:14 AM 10.2 °F -0.6 °F 4.1 °F 76% 29.98 in 10.0 mi West 6.9 mph - N/A   Overcast
5:34 AM 8.6 °F -1.3 °F 3.4 °F 79% 29.99 in 10.0 mi West 5.8 mph - N/A   Overcast
5:54 AM 6.6 °F -3.7 °F 2.7 °F 84% 29.99 in 10.0 mi WSW 5.8 mph - N/A   Mostly Cloudy
6:15 AM 6.6 °F -2.2 °F 3.0 °F 85% 29.99 in 10.0 mi WSW 4.6 mph - N/A Snow Light Snow
6:34 AM 6.6 °F -2.2 °F 3.4 °F 87% 29.99 in 10.0 mi WSW 4.6 mph - N/A   Clear
6:54 AM 3.2 °F -6.2 °F 0.1 °F 87% 30.00 in 10.0 mi WSW 4.6 mph - N/A   Scattered Clouds
7:15 AM 1.6 °F -8.0 °F -1.3 °F 88% 30.01 in 10.0 mi West 4.6 mph - N/A   Mostly Cloudy
7:34 AM 1.6 °F -8.0 °F -1.7 °F 86% 30.01 in 10.0 mi West 4.6 mph - N/A   Scattered Clouds
7:54 AM 6.1 °F -4.3 °F 2.5 °F 85% 30.01 in 10.0 mi West 5.8 mph - N/A   Clear
8:14 AM 6.8 °F -2.0 °F 1.6 °F 79% 30.02 in 10.0 mi West 4.6 mph - N/A   Clear
8:34 AM 7.0 °F 0.1 °F 2.5 °F 82% 30.02 in 10.0 mi West 3.5 mph - N/A   Clear
8:54 AM 9.0 °F - 2.8 °F 76% 30.03 in 10.0 mi Calm Calm - N/A   Scattered Clouds
9:14 AM 12.7 °F 1.4 °F 5.4 °F 72% 30.03 in 10.0 mi West 8.1 mph - N/A   Scattered Clouds
9:34 AM 14.9 °F 0.9 °F 4.8 °F 64% 30.03 in 10.0 mi WNW 12.7 mph 18.4 mph N/A   Clear
9:54 AM 15.4 °F -0.6 °F 3.6 °F 59% 30.03 in 2.5 mi WNW 17.3 mph 26.5 mph N/A   Haze
10:14 AM 16.3 °F 0.1 °F 2.5 °F 55% 30.03 in 7.0 mi WNW 18.4 mph 25.3 mph N/A   Scattered Clouds
10:34 AM 16.3 °F 0.5 °F 2.5 °F 55% 30.03 in 4.0 mi NW 17.3 mph 24.2 mph N/A   Haze
10:54 AM 18.0 °F 1.3 °F 1.2 °F 48% 30.03 in 10.0 mi West 20.7 mph 25.3 mph N/A   Scattered Clouds
11:14 AM 18.3 °F 2.2 °F 2.3 °F 50% 30.03 in 10.0 mi WNW 19.6 mph 25.3 mph N/A   Mostly Cloudy
11:34 AM 17.4 °F 2.9 °F 1.9 °F 51% 30.03 in 10.0 mi NW 15.0 mph 21.9 mph N/A   Overcast
11:54 AM 19.4 °F 6.0 °F 3.2 °F 49% 30.03 in 10.0 mi West 13.8 mph 21.9 mph N/A   Overcast
12:14 PM 19.0 °F 4.0 °F 2.8 °F 49% 30.03 in 10.0 mi West 17.3 mph 21.9 mph N/A   Overcast
12:34 PM 18.7 °F 3.6 °F 3.7 °F 52% 30.03 in 10.0 mi WNW 17.3 mph - N/A   Overcast
12:54 PM 19.4 °F 5.0 °F 4.6 °F 53% 30.02 in 10.0 mi WNW 16.1 mph 21.9 mph N/A   Overcast
1:14 PM 19.4 °F 6.0 °F 4.5 °F 52% 30.02 in 10.0 mi West 13.8 mph 21.9 mph N/A   Overcast
1:34 PM 19.4 °F 6.0 °F 6.4 °F 57% 30.02 in 7.0 mi WNW 13.8 mph 19.6 mph N/A   Overcast
1:55 PM 18.9 °F 5.3 °F 7.3 °F 61% 30.02 in 10.0 mi WNW 13.8 mph 20.7 mph N/A   Overcast
2:14 PM 19.4 °F 5.0 °F 7.9 °F 61% 30.02 in 10.0 mi WNW 16.1 mph 20.7 mph N/A   Overcast
2:34 PM 19.4 °F 7.2 °F 6.1 °F 56% 30.02 in 10.0 mi West 11.5 mph - N/A   Overcast
2:55 PM 19.4 °F 6.6 °F 5.9 °F 56% 30.03 in 10.0 mi WNW 12.7 mph - N/A   Overcast
3:14 PM 20.5 °F 6.9 °F 3.2 °F 47% 30.03 in 10.0 mi West 15.0 mph 24.2 mph N/A   Overcast
3:34 PM 19.8 °F 5.9 °F 5.0 °F 53% 30.03 in 10.0 mi NW 15.0 mph 19.6 mph N/A   Overcast
3:54 PM 19.9 °F 6.7 °F 3.7 °F 50% 30.03 in 10.0 mi WNW 13.8 mph 19.6 mph N/A   Overcast
4:14 PM 19.6 °F 4.3 °F 3.4 °F 50% 30.04 in 10.0 mi WNW 18.4 mph 23.0 mph N/A   Overcast
4:34 PM 19.4 °F 7.9 °F 3.6 °F 50% 30.04 in 10.0 mi WNW 10.4 mph 17.3 mph N/A   Overcast
4:54 PM 19.6 °F 4.3 °F 2.3 °F 47% 30.05 in 10.0 mi WNW 18.4 mph - N/A   Overcast
5:14 PM 19.4 °F 6.6 °F 1.9 °F 47% 30.05 in 10.0 mi NW 12.7 mph 17.3 mph N/A   Overcast
5:34 PM 17.6 °F 6.4 °F 1.9 °F 50% 30.06 in 10.0 mi NW 9.2 mph - N/A   Mostly Cloudy
5:54 PM 16.5 °F 3.6 °F 1.8 °F 52% 30.07 in 10.0 mi WNW 11.5 mph 18.4 mph N/A   Scattered Clouds
6:14 PM 15.6 °F 2.5 °F 1.4 °F 54% 30.08 in 10.0 mi WNW 11.5 mph 16.1 mph N/A   Mostly Cloudy
6:34 PM 15.1 °F 1.8 °F 1.0 °F 54% 30.08 in 10.0 mi WNW 11.5 mph - N/A   Mostly Cloudy
6:54 PM 15.6 °F 3.2 °F 1.4 °F 54% 30.09 in 10.0 mi WNW 10.4 mph - N/A   Overcast
7:14 PM 14.9 °F 0.3 °F 0.7 °F 53% 30.10 in 10.0 mi WNW 13.8 mph - N/A   Overcast
7:34 PM 14.0 °F 2.0 °F -0.0 °F 54% 30.10 in 10.0 mi WNW 9.2 mph - N/A   Scattered Clouds
7:54 PM 12.9 °F 5.2 °F -0.4 °F 55% 30.10 in 10.0 mi WNW 4.6 mph - N/A   Mostly Cloudy
8:14 PM 11.8 °F 5.7 °F -1.3 °F 56% 30.10 in 10.0 mi WNW 3.5 mph - N/A   Mostly Cloudy
8:34 PM 10.6 °F - -1.7 °F 58% 30.10 in 10.0 mi Calm Calm - N/A   Scattered Clouds
8:54 PM 9.1 °F 0.8 °F -2.6 °F 59% 30.11 in 10.0 mi West 4.6 mph - N/A   Clear
9:14 PM 9.1 °F -0.7 °F -1.8 °F 61% 30.11 in 10.0 mi West 5.8 mph - N/A   Clear
9:34 PM 7.2 °F -1.5 °F -2.2 °F 66% 30.11 in 10.0 mi West 4.6 mph - N/A   Clear
9:54 PM 5.4 °F -1.7 °F -3.6 °F 66% 30.11 in 10.0 mi WSW 3.5 mph - N/A   Scattered Clouds
10:14 PM 4.8 °F -7.1 °F -3.3 °F 69% 30.11 in 10.0 mi SW 6.9 mph - N/A   Mostly Cloudy
10:34 PM 6.8 °F -0.1 °F 0.5 °F 75% 30.12 in 10.0 mi WNW 3.5 mph - N/A   Overcast
10:54 PM 8.6 °F 0.1 °F 0.9 °F 71% 30.12 in 10.0 mi NW 4.6 mph - N/A   Overcast
11:14 PM 10.0 °F 0.4 °F 2.3 °F 71% 30.12 in 7.0 mi WNW 5.8 mph - N/A Snow Light Snow
11:34 PM 10.0 °F 1.8 °F 3.2 °F 74% 30.12 in 10.0 mi WNW 4.6 mph - N/A   Overcast
11:54 PM 10.2 °F 2.0 °F 4.1 °F 76% 30.12 in 7.0 mi NW 4.6 mph - N/A   Overcast